This demonstration page uses our WeatherBlox Daily Observations layout. Learn more.

Left ArrowRight Arrow

38.20091, -84.87328

Hourly Observations for May 23, 2020

Temp ( °F °C ) Dew Point ( °F °C ) Humidity (%) Winds ( mph kmh ) Pressure ( in mb ) Visibility ( mi km ) Precip ( " mm )
12:53 am 00:53 Cloudy 68 20 61 16.1 78 78 Calm 29.97 1015 10 16 0.00 0.00
1:53 am 01:53 Cloudy 68 20 62 16.7 81 81 Calm 29.97 1015 10 16 0.00 0.00
2:53 am 02:53 Cloudy 67 19.4 62 16.7 84 84 Calm 29.96 1015 10 16 0.00 0.00
3:53 am 03:53 Cloudy 65 18.3 62 16.7 90 90 Calm 29.95 1014 10 16 0.00 0.00
4:53 am 04:53 Cloudy 66 18.9 62 16.7 87 87 Calm 29.95 1014 10 16 0.00 0.00
5:53 am 05:53 Cloudy 66 18.9 62 16.7 87 87 Calm 29.96 1015 10 16 0.00 0.00
6:53 am 06:53 Partly Cloudy 65 18.3 62 16.7 90 90 Calm 29.97 1015 10 16 0.00 0.00
7:03 am 07:03 Mostly Cloudy 65 18.3 62 16.7 90 90 Calm 29.98 1015 9 14 0.00 0.00
7:53 am 07:53 Partly Cloudy 68 20 64 17.8 87 87 SSE 3 6 29.99 1016 10 16 0.00 0.00
8:11 am 08:11 Mostly Cloudy 69 20.6 64 17.8 84 84 SSW 7 11 30.00 1016 10 16 0.00 0.00
8:53 am 08:53 Mostly Cloudy 70 21.1 65 18.3 84 84 S 5 7 30.01 1016 10 16 0.00 0.00
9:11 am 09:11 Partly Cloudy 71 21.7 65 18.3 81 81 SSW 3 6 30.01 1016 10 16 0.00 0.00
9:53 am 09:53 Partly Cloudy 74 23.3 66 18.9 76 76 SSW 5 7 30.02 1017 10 16 0.00 0.00
10:53 am 10:53 Mostly Sunny 76 24.4 64 17.8 67 67 SW 6 9 30.02 1017 10 16 0.00 0.00
11:53 am 11:53 Cloudy 77 25 65 18.3 66 66 VRB 7 11 30.03 1017 10 16 0.00 0.00
12:35 pm 12:35 Mostly Cloudy with Nearby Thunderstorms 78 25.6 65 18.3 64 64 SSE 8 13 30.01 1016 10 16 0.00 0.00
12:50 pm 12:50 Cloudy with Heavy Rain 73 23 64 18 74 74 S 7 11 30.02 1017 3 5 0.05 1.27
12:53 pm 12:53 Cloudy with Heavy Rain 73 22.8 65 18.3 76 76 S 6 9 30.02 1017 2 3 0.06 1.52
1:05 pm 13:05 Mostly Cloudy with Light Rain 74 23.3 66 18.9 76 76 Calm 30.02 1017 10 16 0.01 0.25
1:53 pm 13:53 Mostly Cloudy 78 25.6 66 18.9 67 67 SE 8 13 30.00 1016 10 16 0.01 0.25
2:53 pm 14:53 Sunny 82 27.8 67 19.4 60 60 ESE 9 15 29.97 1015 10 16 0.00 0.00
3:53 pm 15:53 Partly Cloudy with Thunderstorms 80 26.7 68 20 67 67 SSE 6 9 29.97 1015 10 16 0.00 0.00
4:01 pm 16:01 Mostly Cloudy with Thunderstorms 74 23.3 64 17.8 71 71 SSW 32 52 29.99 1016 2 3 0.08 2.03
4:07 pm 16:07 Cloudy with Thunderstorms 69 20.6 61 16.1 76 76 S 16 26 29.99 1016 1 1 0.14 3.56
4:17 pm 16:17 Cloudy with Thunderstorms 68 20 63 17.2 84 84 NNE 5 7 29.96 1015 1 2 0.21 5.33
4:22 pm 16:22 Cloudy with Thunderstorms 69 20.6 64 17.8 84 84 Calm 29.96 1015 3 5 0.21 5.33
4:33 pm 16:33 Mostly Cloudy with Nearby Thunderstorms 70 21.1 65 18.3 84 84 Calm 29.95 1014 10 16 0.21 5.33
4:43 pm 16:43 Mostly Sunny 72 22.2 66 18.9 82 82 SSE 5 7 29.94 1014 10 16 0.21 5.33
4:53 pm 16:53 Sunny 74 23.3 68 20 82 82 SE 5 7 29.94 1014 10 16 0.21 5.33
5:53 pm 17:53 Mostly Cloudy 77 25 68 20 74 74 N 3 6 29.95 1014 10 16 0.01 0.25
6:18 pm 18:18 Partly Cloudy with Nearby Thunderstorms 75 23.9 68 20 79 79 undefined N/A 29.95 1014 N/A 0.00 0.00
6:50 pm 18:50 undefined N/A N/A N/A undefined N/A N/A N/A 0.00 0.00
6:53 pm 18:53 undefined N/A N/A N/A undefined N/A N/A N/A 0.00 0.00
7:38 pm 19:38 Partly Cloudy with Nearby Thunderstorms N/A N/A N/A undefined N/A N/A N/A 0.00 0.00
7:48 pm 19:48 Partly Cloudy with Thunderstorms N/A N/A N/A undefined N/A N/A N/A 0.00 0.00
7:53 pm 19:53 Partly Cloudy with Thunderstorms N/A N/A N/A undefined N/A N/A N/A 0.00 0.00
8:20 pm 20:20 Partly Cloudy with Nearby Thunderstorms N/A N/A N/A undefined N/A N/A N/A 0.00 0.00
8:30 pm 20:30 Partly Cloudy with Thunderstorms N/A N/A N/A undefined N/A N/A N/A 0.00 0.00
8:45 pm 20:45 undefined N/A N/A N/A undefined N/A N/A N/A 0.00 0.00
8:53 pm 20:53 undefined N/A N/A N/A undefined N/A N/A N/A 0.00 0.00
9:53 pm 21:53 undefined N/A N/A N/A undefined N/A N/A N/A 0.00 0.00
10:53 pm 22:53 undefined N/A N/A N/A undefined N/A N/A N/A 0.00 0.00
11:42 pm 23:42 Mostly Clear with Nearby Thunderstorms N/A N/A N/A undefined N/A N/A N/A 0.00 0.00
11:53 pm 23:53 Mostly Clear with Nearby Thunderstorms N/A N/A N/A undefined N/A N/A N/A 0.00 0.00

Powered by AerisWeather